www.pogodaiklimat.ru

Погода и климат >> Архив погоды >> Япония >> Акуне


ПОГОДА в Акуне

  • Прогноз погоды в Акуне
  • Монитор погоды в Акуне

АРХИВ ПОГОДЫ в Акуне

Время (UTC), дата Ветер
(напр.,м/с)
 
Видим.   Явления Облачность Т
(С)
Тd
(С)
f
(%)
Тe
(С)
Тes
(С)
Комфортность P
(гПа)
Po
(гПа)
Тmin
(С)
Tmax
(С)
R
(мм)
R24
(мм)
S
(см)
03 16.09 С 5 20 км н/о +29.5 +21.2 61 +37 +37 очень
душно
1004.9 1000.2
04 16.09 С 5 20 км н/о +30.3 +20.6 56 +37 +37 очень
душно
1004.4 999.7
05 16.09 С 5 20 км н/о +30.1 +20.4 56 +37 +37 очень
душно
1003.8 999.1
07 16.09 С 5 20 км н/о +30.1 +20.1 55 +37 +37 очень
душно
1003.4 998.7
08 16.09 С 5 20 км н/о +29.3 +19.6 56 +35 +35 очень
душно
1003.7 999.0
09 16.09 СВ 5 20 км н/о +27.8 +19.6 61 +34 +34 очень
душно
1004.3 999.6
10 16.09 СВ 5 20 км н/о +26.4 +19.1 64 +32 +32 очень
душно
1004.6 999.8
11 16.09 СВ 5 20 км н/о +25.3 +18.3 65 +30 +30 душно 1005.5 1000.7
12 16.09 СВ 6 20 км н/о +24.7 +18.4 68 +29 +29 душно 1006.3 1001.5 +31.1
13 16.09 СВ 5 20 км н/о +24.2 +17.9 68 +28 +28 душно 1006.6 1001.8
14 16.09 СВ 6 20 км н/о +23.8 +17.8 69 +28 +28 душно 1006.4 1001.6
15 16.09 СВ 5 20 км н/о +23.5 +17.9 71 +28 +28 душно 1006.6 1001.8
16 16.09 СВ 4 20 км н/о +23.0 +18.1 74 +29 +29 очень
душно
1006.8 1002.0
17 16.09 СВ 5 20 км н/о +23.0 +17.7 72 +28 +28 душно 1006.6 1001.8
18 16.09 СВ 4 20 км н/о +22.5 +17.9 75 +28 +28 душно 1006.6 1001.8
19 16.09 СВ 4 20 км н/о +22.3 +17.5 74 +27 +27 душно 1006.7 1001.9
20 16.09 СВ 5 10 км н/о +22.5 +17.4 73 +27 +27 душно 1007.2 1002.4
21 16.09 СВ 4 20 км н/о +21.9 +17.1 74 +26 +26 душно 1007.7 1002.8
22 16.09 СВ 4 20 км н/о +22.1 +17.0 73 +27 +27 душно 1008.2 1003.3
23 16.09 В 4 20 км н/о +23.4 +18.1 72 +29 +29 душно 1008.7 1003.9
01 17.09 СВ 4 20 км н/о +26.0 +17.6 60 +30 +30 душно 1009.5 1004.7
02 17.09 СВ 4 20 км н/о +27.2 +17.7 56 +31 +31 душно 1009.2 1004.4
03 17.09 СВ 4 20 км в посл. час дождь н/о +28.0 +17.8 54 +32 +32 душно 1008.5 1003.8
04 17.09 СВ 3 20 км н/о +29.0 +18.5 53 +34 +34 очень
душно
1008.3 1003.6
05 17.09 С 2 20 км н/о +29.6 +19.6 55 +36 +36 очень
душно
1007.8 1003.1
06 17.09 СЗ 3 20 км {дождь} н/о +29.1 +18.6 53 +34 +34 очень
душно
1007.6 1002.9 0.0
07 17.09 СЗ 3 20 км н/о +27.7 +20.5 65 +34 +34 очень
душно
1007.6 1002.9
08 17.09 СЗ 1 20 км н/о +27.9 +20.0 62 +34 +34 очень
душно
1007.7 1003.0
09 17.09 С 1 20 км н/о +26.8 +19.9 66 +33 +33 очень
душно
1007.9 1003.1
11 17.09 В 2 20 км н/о +25.6 +20.0 71 +31 +31 очень
душно
1009.0 1004.2
12 17.09 В 2 20 км н/о +25.2 +20.0 73 +31 +31 очень
душно
1009.8 1005.0 +29.7 0.0
13 17.09 В 2 20 км н/о +24.7 +19.8 74 +30 +30 очень
душно
1010.1 1005.3
14 17.09 В 1 20 км н/о +25.0 +20.3 75 +31 +31 очень
душно
1010.4 1005.6
15 17.09 ЮВ 2 20 км н/о +24.2 +19.7 76 +29 +29 душно 1010.4 1005.6
16 17.09 СВ 2 20 км н/о +24.5 +20.6 79 +30 +30 очень
душно
1010.0 1005.2
18 17.09 В 3 20 км н/о +23.2 +20.4 84 +30 +30 очень
душно
1009.6 1004.8
20 17.09 СВ 4 18 км н/о +22.7 +20.4 87 +29 +29 очень
душно
1009.7 1004.9
23 17.09 СВ 4 20 км н/о +24.3 +20.6 80 +30 +30 очень
душно
1010.8 1006.0
00 18.09 СВ 5 20 км н/о +25.9 +20.9 74 +32 +32 очень
душно
1011.1 1006.3 +22.3
01 18.09 СВ 4 20 км н/о +27.4 +21.0 68 +34 +34 очень
душно
1011.2 1006.4
02 18.09 СВ 5 20 км н/о +28.4 +19.4 58 +34 +34 очень
душно
1010.7 1005.9
03 18.09 С 4 20 км н/о +29.3 +19.6 56 +35 +35 очень
душно
1010.0 1005.3
04 18.09 С 5 20 км н/о +29.5 +20.4 58 +36 +36 очень
душно
1009.8 1005.1
05 18.09 СВ 5 20 км н/о +29.3 +19.9 57 +36 +36 очень
душно
1009.4 1004.7
06 18.09 СВ 5 20 км н/о +29.8 +19.5 54 +36 +36 очень
душно
1008.5 1003.8
07 18.09 СВ 5 20 км н/о +29.1 +20.3 59 +36 +36 очень
душно
1008.4 1003.7
09 18.09 СВ 5 20 км н/о +26.6 +16.8 55 +30 +30 душно 1009.6 1004.8
10 18.09 СВ 4 20 км н/о +25.3 +16.5 58 +29 +29 душно 1010.2 1005.4
11 18.09 СВ 4 20 км н/о +24.9 +16.1 58 +28 +28 жарко 1010.9 1006.1
13 18.09 СВ 4 20 км н/о +24.1 +16.6 63 +28 +28 душно 1011.4 1006.6
14 18.09 СВ 4 20 км н/о +23.6 +16.7 65 +27 +27 жарко 1011.6 1006.8
15 18.09 СВ 4 20 км н/о +23.2 +16.3 65 +28 +28 душно 1011.6 1006.8
16 18.09 СВ 4 20 км н/о +22.5 +16.8 70 +27 +27 душно 1011.6 1006.7
17 18.09 СВ 4 20 км н/о +21.4 +14.8 66 +24 +24 комфорт 1011.6 1006.7
18 18.09 СВ 4 20 км н/о +21.2 +15.1 68 +24 +24 комфорт 1011.7 1006.8
19 18.09 СВ 5 20 км н/о +21.4 +15.3 68 +25 +25 комфорт 1011.7 1006.8
20 18.09 СВ 5 20 км н/о +20.9 +15.2 70 +24 +24 комфорт 1011.7 1006.8
21 18.09 В 4 20 км н/о +20.3 +14.0 67 +23 +23 комфорт 1011.9 1007.0
22 18.09 В 4 20 км н/о +20.5 +13.2 63 +23 +23 комфорт 1012.4 1007.5
23 18.09 СВ 5 20 км н/о +22.4 +13.2 56 +25 +25 комфорт 1012.6 1007.7
00 19.09 СВ 6 20 км н/о +24.2 +14.3 54 +27 +27 жарко 1013.3 1008.5 +20.0
01 19.09 СВ 7 20 км н/о +24.8 +12.7 47 +27 +27 жарко 1013.4 1008.6
02 19.09 СВ 7 20 км н/о +26.0 +14.2 48 +28 +28 жарко 1013.0 1008.2
03 19.09 С 6 20 км н/о +26.8 +14.9 48 +29 +29 жарко 1012.8 1008.0
04 19.09 СВ 5 20 км н/о +27.7 +15.7 48 +31 +31 душно 1011.8 1007.0
05 19.09 СВ 5 20 км н/о +28.4 +15.3 45 +31 +31 душно 1011.1 1006.3
06 19.09 СВ 5 20 км н/о +28.4 +15.7 46 +31 +31 душно 1010.4 1005.6
07 19.09 СВ 4 20 км н/о +28.4 +16.0 47 +32 +32 душно 1010.1 1005.4
08 19.09 СВ 3 20 км н/о +27.8 +17.1 52 +32 +32 душно 1010.4 1005.6
09 19.09 В 3 20 км н/о +26.5 +17.0 56 +30 +30 душно 1011.0 1006.2
10 19.09 В 2 20 км н/о +25.0 +17.5 63 +29 +29 душно 1011.6 1006.8
11 19.09 СВ 2 20 км н/о +23.4 +16.9 67 +29 +29 душно 1012.3 1007.5
12 19.09 СВ 3 20 км н/о +23.0 +16.6 67 +28 +28 душно 1012.7 1007.8 +29.0
13 19.09 В 1 20 км н/о +22.4 +16.7 70 +27 +27 душно 1012.5 1007.6
14 19.09 В 3 20 км н/о +22.7 +16.3 67 +27 +27 душно 1012.7 1007.8
15 19.09 СВ 4 20 км н/о +20.6 +15.8 74 +24 +24 комфорт 1012.3 1007.4
16 19.09 В 3 20 км н/о +20.5 +16.1 76 +24 +24 комфорт 1011.9 1007.0
18 19.09 СВ 4 20 км н/о +21.5 +15.8 70 +25 +25 комфорт 1011.1 1006.2
19 19.09 СВ 4 20 км н/о +21.9 +15.5 67 +26 +26 душно 1011.1 1006.2
20 19.09 СВ 3 20 км слаб. дождь н/о +21.9 +16.2 70 +26 +26 душно 1010.9 1006.0
21 19.09 ЮВ 2 5000 м слаб. дождь н/о +19.8 +16.5 81 +23 +23 комфорт 1012.0 1007.1
22 19.09 СВ 4 2200 м дождь н/о +18.7 +17.7 94 +20 +20 1012.1 1007.2
23 19.09 СВ 4 7000 м слаб. дождь н/о +19.3 +18.3 94 +21 +21 комфорт 1012.5 1007.6
00 20.09 СВ 4 12 км слаб. дождь н/о +19.6 +18.6 94 +22 +22 комфорт 1012.9 1008.0 +18.7 11
01 20.09 СВ 4 4800 м слаб. дождь н/о +19.8 +18.5 92 +23 +23 комфорт 1013.5 1008.6
02 20.09 СВ 5 7000 м слаб. дождь н/о +19.9 +18.7 93 +23 +23 комфорт 1013.0 1008.1
03 20.09 СВ 4 5000 м слаб. дождь н/о +19.8 +18.8 94 +23 +23 комфорт 1012.8 1007.9
04 20.09 СВ 3 5000 м слаб. дождь н/о +19.7 +18.7 94 +23 +23 комфорт 1013.3 1008.4
05 20.09 СВ 7 6000 м слаб. дождь н/о +20.1 +19.3 95 +23 +23 комфорт 1011.8 1006.9
06 20.09 СВ 6 16 км в посл. час дождь н/о +20.1 +18.6 91 +23 +23 комфорт 1011.2 1006.3 11
07 20.09 СВ 7 20 км н/о +20.3 +18.3 88 +23 +23 комфорт 1011.5 1006.6
08 20.09 СВ 6 20 км в посл. час дождь н/о +20.6 +18.6 88 +24 +24 комфорт 1011.9 1007.0
09 20.09 СВ 6 20 км {дождь} н/о +20.8 +18.9 89 +25 +25 комфорт 1011.8 1006.9
10 20.09 СВ 5 20 км в посл. час дождь н/о +21.0 +19.3 90 +26 +26 душно 1012.0 1007.1
11 20.09 СВ 4 20 км н/о +21.4 +19.2 87 +26 +26 душно 1012.5 1007.6
12 20.09 СВ 5 20 км {дождь} н/о +21.7 +18.9 84 +27 +27 душно 1012.7 1007.8 +21.8 11
13 20.09 СВ 4 20 км н/о +22.2 +19.0 82 +28 +28 душно 1012.4 1007.5
14 20.09 СВ 4 20 км н/о +22.5 +19.1 81 +28 +28 душно 1012.3 1007.4
15 20.09 СВ 5 20 км н/о +22.7 +18.7 78 +28 +28 душно 1012.1 1007.2
16 20.09 СВ 5 20 км н/о +23.1 +18.2 74 +29 +29 очень
душно
1011.8 1006.9
17 20.09 СВ 4 20 км н/о +23.0 +18.3 75 +29 +29 очень
душно
1012.0 1007.1
18 20.09 СВ 6 20 км н/о +23.6 +18.5 73 +28 +28 душно 1010.2 1005.4
19 20.09 СВ 4 20 км н/о +23.7 +18.6 73 +28 +28 душно 1009.8 1005.0
20 20.09 СВ 5 20 км н/о +24.3 +18.9 72 +29 +29 душно 1010.2 1005.4
21 20.09 СВ 5 20 км н/о +24.2 +19.3 74 +29 +29 душно 1010.5 1005.7
22 20.09 СВ 5 20 км н/о +25.0 +19.8 73 +31 +31 очень
душно
1010.7 1005.9
23 20.09 СВ 5 20 км н/о +26.0 +20.3 71 +32 +32 очень
душно
1010.8 1006.0
00 21.09 СВ 5 20 км н/о +27.3 +21.1 69 +34 +34 очень
душно
1011.3 1006.5 +21.7
01 21.09 В 2 20 км н/о +28.4 +21.2 65 +36 +36 очень
душно
1011.1 1006.3
02 21.09 В 3 20 км н/о +29.9 +21.6 61 +38 +38 очень
душно
1010.5 1005.8
03 21.09 В 4 20 км н/о +29.9 +21.3 60 +38 +38 очень
душно
1009.7 1005.0
04 21.09 В 4 20 км н/о +29.8 +20.4 57 +37 +37 очень
душно
1008.8 1004.1
06 21.09 В 4 20 км н/о +29.4 +20.6 59 +36 +36 очень
душно
1007.3 1002.6
07 21.09 В 4 20 км н/о +29.3 +21.0 61 +37 +37 очень
душно
1007.8 1003.1
08 21.09 В 2 20 км н/о +28.7 +21.0 63 +36 +36 очень
душно
1008.2 1003.5
09 21.09 В 3 20 км н/о +28.7 +21.2 64 +36 +36 очень
душно
1008.7 1004.0
10 21.09 В 3 20 км н/о +28.5 +21.5 66 +36 +36 очень
душно
1008.7 1004.0
11 21.09 В 3 20 км н/о +27.9 +21.7 69 +36 +36 очень
душно
1009.1 1004.3
13 21.09 В 2 8000 м слаб. дождь н/о +24.9 +22.6 87 +33 +33 очень
душно
1009.0 1004.2
14 21.09 В 2 8000 м слаб. дождь н/о +24.9 +22.6 87 +33 +33 очень
душно
1008.4 1003.6
15 21.09 СВ 3 8000 м слаб. дождь н/о +24.1 +22.9 93 +32 +32 очень
душно
1007.1 1002.3
16 21.09 СВ 3 16 км в посл. час дождь н/о +24.4 +23.2 93 +33 +33 очень
душно
1006.4 1001.6
17 21.09 В 3 16 км слаб. дождь н/о +25.5 +22.8 85 +34 +34 очень
душно
1005.6 1000.8
18 21.09 В 2 8000 м слаб. дождь н/о +25.6 +22.7 84 +34 +34 очень
душно
1004.4 999.6 14
19 21.09 ЮВ 4 5000 м дождь н/о +25.1 +22.4 85 +33 +33 очень
душно
1004.4 999.6
20 21.09 ЮВ 4 20 км слаб. дождь н/о +24.9 +21.6 82 +32 +32 очень
душно
1003.0 998.2
21 21.09 В 4 20 км в посл. час дождь н/о +26.2 +21.6 76 +34 +34 очень
душно
1002.5 997.7
22 21.09 ЮВ 4 20 км слаб. дождь н/о +25.7 +22.2 81 +33 +33 очень
душно
1002.0 997.2
23 21.09 ЮВ 4 9000 м слаб. дождь н/о +25.2 +22.7 86 +33 +33 очень
душно
1001.9 997.1
00 22.09 ЮВ 5 8000 м слаб. дождь н/о +26.1 +23.0 83 +35 +35 очень
душно
1000.7 996.0 +24.1 22
01 22.09 Ю 4 1900 м сильн. дождь н/о +25.2 +23.8 92 +34 +34 очень
душно
1001.1 996.3
02 22.09 Ю 6 2800 м сильн. дождь н/о +25.8 +23.7 88 +35 +35 очень
душно
999.6 994.9
03 22.09 Ю 6 16 км слаб. дождь н/о +27.0 +23.7 82 +37 +37 очень
душно
998.4 993.7
04 22.09 Ю 6 19 км в посл. час дождь н/о +28.2 +23.4 75 +38 +38 очень
душно
997.0 992.3
05 22.09 Ю 7 20 км слаб. дождь н/о +27.9 +22.6 73 +37 +37 очень
душно
996.1 991.4
06 22.09 Ю 6 16 км слаб. дождь н/о +26.5 +23.2 82 +36 +36 очень
душно
995.4 990.7 34
07 22.09 Ю 8 4900 м слаб. дождь н/о +25.4 +23.5 89 +34 +34 очень
душно
994.7 990.0
08 22.09 Ю 10 9000 м слаб. дождь н/о +25.9 +23.6 87 +35 +35 очень
душно
994.9 990.2
09 22.09 Ю 10 4000 м слаб. дождь н/о +25.9 +24.0 89 +36 +36 очень
душно
995.5 990.8
10 22.09 Ю 9 5000 м слаб. дождь н/о +25.1 +23.7 92 +34 +34 очень
душно
997.0 992.3
11 22.09 Ю 9 12 км слаб. дождь н/о +24.6 +22.3 87 +32 +32 очень
душно
998.3 993.5
13 22.09 ЮЗ 8 12 км в посл. час дождь н/о +24.6 +21.3 82 +31 +31 очень
душно
1002.5 997.7
14 22.09 ЮЗ 7 7000 м слаб. дождь н/о +24.0 +21.1 84 +30 +30 очень
душно
1003.8 999.0
15 22.09 ЮЗ 9 12 км в посл. час дождь н/о +23.6 +20.9 85 +30 +30 очень
душно
1004.7 999.9
16 22.09 З 8 10 км слаб. дождь н/о +23.3 +19.9 81 +30 +30 очень
душно
1006.0 1001.2
17 22.09 З 7 12 км слаб. дождь н/о +22.9 +19.5 81 +29 +29 очень
душно
1007.0 1002.2
18 22.09 СЗ 7 14 км в посл. час дождь н/о +22.7 +19.5 82 +29 +29 очень
душно
1007.6 1002.8 0.0
19 22.09 СЗ 5 18 км в посл. час дождь н/о +22.6 +18.8 79 +28 +28 душно 1008.3 1003.5
20 22.09 С 4 20 км н/о +22.4 +18.6 79 +28 +28 душно 1009.4 1004.5
21 22.09 С 2 20 км в посл. час дождь н/о +22.2 +18.2 78 +27 +27 душно 1010.0 1005.1
22 22.09 СВ 3 20 км н/о +21.7 +17.7 78 +26 +26 душно 1010.8 1005.9
23 22.09 СВ 4 20 км н/о +22.0 +18.6 81 +27 +27 душно 1011.5 1006.6
00 23.09 СВ 4 20 км {дождь} н/о +23.3 +18.2 73 +29 +29 душно 1012.0 1007.2 +21.6 0.0

 

Местоположение метеостанции Акуне (Япония): широта 32.03 долгота 130.19 высота над уровнем моря 45 м.

В архиве по умолчанию представлена погода в Акуне за последнюю неделю. Архивные данные за месяц целиком и за предыдущие месяцы, начиная с января 2011 года, Вы можете получить, выбрав интересующий диапазон дат из раскрывающегося списка и нажав кнопку "Ввод!".


*Определитесь, кто Вы:
робот инопланетянин человек

Внимание! Время в таблицах - всемирное. Для получения местного времени необходимо прибавить поправку, которая равна 9 ч.

Смотрите также архив погоды в соседних городах и на ближайших метеорологических станциях:

Погода в Ушибуке (Япония) (38 км)
Погода в Хитоёси (Япония) (57 км)
Погода в Кагосиме (Япония) (63 км)
Погода на Ундзэне (Япония) (78 км)
Погода в Нагасаки (Япония) (84 км)
Погода в Макурадзаки (Япония) (85 км)
Погода в Мияконодзё (Япония) (90 км)
Погода в Кумамото (Япония) (100 км)
Погода в Миядзаки (Япония) (116 км)
Погода в Абурацу (Япония) (125 км)

Пояснения к столбцам:

Ветер - указаны скорость ветра в м/с - средняя за 10 мин, порывы в срок и между сроками (в фигурных скобках) и направление, откуда дует ветер: С - северный, СВ - северо-восточный, В - восточный, ЮВ - юго-восточный, Ю - южный, ЮЗ - юго-западный, З - западный, СЗ - северо-западный.
Видимость - горизонтальная дальность видимости в метрах или километрах. При видимости от 1 до 10 км при отсутствии осадков обычно наблюдается дымка, при ухудшении видимости до 1 км и менее - туман. В сухую погоду видимость может ухудшаться дымом, пылью или мглою.
Явления - указаны атмосферные явления, наблюдавшиеся в срок или в последний час перед сроком; фигурными скобками обозначены явления, наблюдавшиеся между сроками (за 1-3 часа до срока); квадратными скобками обозначены град или гололедные отложения с указанием их диаметра в мм.
Облачность - указаны через наклонную черту общая и нижняя облачность в баллах и высота нижней границы облаков в метрах; квадратными скобками обозначены формы облаков: Ci - перистые, Cs - перисто-слоистые, Cc - перисто-кучевые, Ac - высококучевые, As - высокослоистые, Sc - слоисто-кучевые, Ns - слоисто-дождевые, Cu - кучевые, Cb - кучево-дождевые. Подробнее классификацию облаков см. в Атласе облаков (PDF).
T - Температура воздуха - температура, измеренная на высоте 2 м над землей.
Td - Температура точки росы - температура, при понижении до которой содержащийся в воздухе водяной пар достигнет насыщения.
f - Относительная влажность воздуха - влажноcть воздуха, измеренная на высоте 2 м над землей.
Te - Эффективная температура - температура, которую ощущает одетый по сезону человек в тени. Характеристика душности погоды. При расчете учитывается влияние влажности воздуха и скорости ветра на теплоощущения человека.
Tes - Эффективная температура на солнце - температура, которую ощущает человек, с поправкой на солнечный нагрев. Характеристика знойности погоды. Зависит от высоты солнца над горизонтом, облачности и скорости ветра. Ночью, в пасмурную погоду, а также при ветре 12 м/с и более поправка равна нулю.
P - Атмосферное давление - приведенное к уровню моря атмосферное давление.
Po - Атмосферное давление - измеренное на уровне метеостанции атмосферное давление.
Tmin - Минимальная температура - минимум температуры воздуха на высоте 2 м над землей.
Tmax - Максимальная температура - максимум температуры воздуха на высоте 2 м над землей.
R - Количество осадков - Количество выпавших осадков за период времени, мм. При наведении курсора мыши на число - период времени, за который выпало указанное количество осадков.
R24 - Количество осадков - Количество выпавших осадков за 24 часа, мм.
S - Снежный покров - Высота снежного покрова, см. При наведении курсора мыши на число - состояние снежного покрова и степень покрытия местности в баллах.